Regional Weather Roundup
Issued by NWS

Home | Current Version | Previous Version | Graphics & Text | Print | Product List | Glossary Off
Versions: 1 2 3 4 5 6 7 8 9 10 11 12 13 14 15 16 17 18 19 20 21 22 23 24 25 26 27 28 29 30 31 32 33 34 35 36 37 38 39 40 41 42 43 44 45 46 47 48 49 50

000
ASUS43 KFSD 310910
RWRSD

WEATHER ROUNDUP FOR SOUTH DAKOTA
NATIONAL WEATHER SERVICE SIOUX FALLS SD
400 AM CDT THU JUL 31 2014

NOTE: "FAIR" INDICATES FEW OR NO CLOUDS BELOW 12,000 FEET WITH NO
SIGNIFICANT WEATHER AND/OR OBSTRUCTIONS TO VISIBILITY.


SDZ001>005-009-010-012>017-311000-
NORTHWEST AND NORTH CENTRAL SOUTH DAKOTA

CITY           SKY/WX    TMP DP  RH WIND       PRES   REMARKS
BUFFALO          N/A     59  51  75 W5        30.08F
FAITH            N/A     60  54  80 CALM      30.11S
MOBRIDGE       PTCLDY    61  54  77 E8        30.07S
$$

SDZ012>016-024>037-041>051-057-063-072>074-311000-
SOUTHWEST AND SOUTH CENTRAL SOUTH DAKOTA

CITY           SKY/WX    TMP DP  RH WIND       PRES   REMARKS
RAPID CTY ARPT CLEAR     60  49  66 NW9       30.16S
PIERRE         CLEAR     60  55  83 E7        30.05S
CUSTER         CLEAR     53  42  66 NW7       30.28F
ELLSWORTH AFB  CLEAR     56  49  76 NW8       30.16S
PHILIP         CLEAR     57  52  83 NW5       30.08F
PINE RIDGE     MOCLDY    50  48  93 S5        30.16F
WINNER         FAIR      66  54  65 S3        30.04S
$$

SDZ004>011-016>023-039-040-311000-
NORTHEAST SOUTH DAKOTA

CITY           SKY/WX    TMP DP  RH WIND       PRES   REMARKS
ABERDEEN       MOCLDY    60  57  89 NE3       30.08S
WATERTOWN      CLEAR     57  53  86 CALM      30.09S
SISSETON         N/A     56  54  93 W3        30.05S
$$

SDZ017-020-022-023-036>040-048>070-311000-
SOUTHEAST SOUTH DAKOTA

CITY           SKY/WX    TMP DP  RH WIND       PRES   REMARKS
SIOUX FALLS    CLEAR     55  53  93 CALM      30.08F
HURON          PTCLDY    59  55  87 CALM      30.07S
CHAMBERLAIN    CLEAR     64  56  76 E7        30.05S
MITCHELL       LGT RAIN  65  62  90 S6        30.08S
YANKTON        MOCLDY    63  55  77 S3        30.08F
$$

ABBREVIATIONS USED IN REMARKS
   TC - TEMPERATURE IN CELSIUS
  WCI - WIND CHILL INDEX
   HX - HEAT INDEX
  VSB - VISIBILITY




USA.gov is the U.S. government's official web portal to all federal, state and local government web resources and services.